When you browse on this site, cookies collect data to enhance your experience and personalize the content and advertising you see.
Visit our Privacy Policy to learn more. By continuing to use the site, you agree to this use of cookies and data.
  • în România
  • Lista ţărilor
  • Pe 7 zile
  • Temperatura apei
  • Hartă satelitară
  • Meteo pe hartă
  • Widget-uri
  • user-avatar
    Intrare

    Meteo pe oră la Middlesbrough

    Astăzi, 20 Ianuarie, Duminică

    Timp Temperatura Precipitaţii Vânt Presiune Umiditate
    00:00 +1°C° 0 mm 2 m/s 758 mmHg 90%
    01:00 +1°C° 0 mm 2 m/s 758 mmHg 90%
    02:00 +1°C° 0 mm 2 m/s 758 mmHg 90%
    03:00 +1°C° 0 mm 2 m/s 759 mmHg 91%
    04:00 +1°C° 0 mm 2 m/s 759 mmHg 91%
    05:00 +1°C° 0 mm 2 m/s 759 mmHg 91%
    06:00 +1°C° 0 mm 2 m/s 759 mmHg 91%
    07:00 +1°C° 0 mm 2 m/s 760 mmHg 91%
    08:00 +1°C° 0 mm 2 m/s 760 mmHg 91%
    09:00 +1°C° 0 mm 2 m/s 761 mmHg 91%
    10:00 +2°C° 0 mm 2 m/s 761 mmHg 88%
    11:00 +3°C° 0 mm 2 m/s 762 mmHg 85%
    12:00 +4°C° 0 mm 2 m/s 762 mmHg 81%
    13:00 +4°C° 0 mm 2 m/s 762 mmHg 82%
    14:00 +4°C° 0 mm 2 m/s 763 mmHg 84%
    15:00 +4°C° 0 mm 2 m/s 763 mmHg 85%
    16:00 +3°C° 0.1 mm 3 m/s 763 mmHg 87%
    17:00 +3°C° 0.1 mm 3 m/s 764 mmHg 89%
    18:00 +3°C° 0.1 mm 4 m/s 764 mmHg 91%
    19:00 +3°C° 0.1 mm 4 m/s 765 mmHg 90%
    20:00 +3°C° 0.1 mm 4 m/s 765 mmHg 88%
    21:00 +2°C° 0.1 mm 5 m/s 766 mmHg 87%
    22:00 +1°C° 0 mm 4 m/s 766 mmHg 86%
    23:00 +1°C° 0 mm 4 m/s 767 mmHg 85%

    Mâine, 21 Ianuarie, Luni

    Timp Temperatura Precipitaţii Vânt Presiune Umiditate
    00:00 +1°C° 0 mm 4 m/s 767 mmHg 84%
    01:00 +1°C° 0 mm 3 m/s 767 mmHg 84%
    02:00 +1°C° 0 mm 3 m/s 767 mmHg 85%
    03:00 0°C° 0 mm 3 m/s 767 mmHg 86%
    04:00 +1°C° 0 mm 2 m/s 767 mmHg 85%
    05:00 +1°C° 0 mm 2 m/s 766 mmHg 84%
    06:00 +1°C° 0 mm 1 m/s 766 mmHg 84%
    07:00 -1°C° 0 mm 2 m/s 766 mmHg 83%
    08:00 +1°C° 0 mm 2 m/s 766 mmHg 82%
    09:00 +1°C° 0 mm 2 m/s 765 mmHg 81%
    10:00 +1°C° 0 mm 3 m/s 765 mmHg 79%
    11:00 +1°C° 0 mm 4 m/s 764 mmHg 77%
    12:00 +2°C° 0 mm 5 m/s 763 mmHg 75%
    13:00 +2°C° 0 mm 5 m/s 762 mmHg 78%
    14:00 +2°C° 0 mm 5 m/s 761 mmHg 80%
    15:00 +2°C° 0 mm 5 m/s 760 mmHg 83%
    16:00 +2°C° 0 mm 6 m/s 758 mmHg 84%
    17:00 +2°C° 0 mm 6 m/s 757 mmHg 86%
    18:00 0°C° 0 mm 7 m/s 756 mmHg 87%
    19:00 +1°C° 0.2 mm 8 m/s 754 mmHg 86%
    20:00 +1°C° 0.2 mm 8 m/s 752 mmHg 85%
    21:00 +1°C° 0.2 mm 9 m/s 751 mmHg 83%
    22:00 +1°C° 0.5 mm 9 m/s 750 mmHg 84%
    23:00 +1°C° 0.5 mm 8 m/s 749 mmHg 85%

    Poimâine, 22 Ianuarie, Marţi

    Timp Temperatura Precipitaţii Vânt Presiune Umiditate
    00:00 +1°C° 0.5 mm 8 m/s 748 mmHg 86%
    01:00 0°C° 0.2 mm 7 m/s 747 mmHg 84%
    02:00 -1°C° 0.2 mm 7 m/s 746 mmHg 82%
    03:00 -1°C° 0.2 mm 6 m/s 746 mmHg 79%
    04:00 -2°C° 0 mm 6 m/s 745 mmHg 80%
    05:00 -2°C° 0 mm 6 m/s 745 mmHg 81%
    06:00 -2°C° 0 mm 6 m/s 745 mmHg 81%
    07:00 -1°C° 0 mm 5 m/s 745 mmHg 81%
    08:00 -1°C° 0 mm 5 m/s 745 mmHg 82%
    09:00 -1°C° 0 mm 5 m/s 745 mmHg 82%
    10:00 0°C° 0 mm 5 m/s 745 mmHg 79%
    11:00 -1°C° 0 mm 6 m/s 745 mmHg 77%
    12:00 +1°C° 0 mm 6 m/s 745 mmHg 74%
    13:00 +1°C° 0 mm 6 m/s 745 mmHg 75%
    14:00 +1°C° 0 mm 5 m/s 745 mmHg 75%
    15:00 +1°C° 0 mm 5 m/s 745 mmHg 75%
    16:00 0°C° 0 mm 5 m/s 746 mmHg 77%
    17:00 -1°C° 0 mm 5 m/s 746 mmHg 78%
    18:00 -1°C° 0 mm 5 m/s 747 mmHg 79%
    19:00 -2°C° 0 mm 5 m/s 747 mmHg 79%
    20:00 -2°C° 0 mm 5 m/s 748 mmHg 78%
    21:00 -2°C° 0 mm 5 m/s 748 mmHg 78%
    22:00 -2°C° 0 mm 5 m/s 748 mmHg 77%
    23:00 -2°C° 0 mm 5 m/s 749 mmHg 75%

    23 Ianuarie, Miercuri

    Timp Temperatura Precipitaţii Vânt Presiune Umiditate
    00:00 -2°C° 0 mm 5 m/s 749 mmHg 74%
    01:00 -2°C° 0 mm 4 m/s 749 mmHg 74%
    02:00 -2°C° 0 mm 4 m/s 749 mmHg 74%
    03:00 -2°C° 0 mm 4 m/s 749 mmHg 73%
    04:00 -2°C° 0 mm 4 m/s 749 mmHg 74%
    05:00 -2°C° 0 mm 4 m/s 750 mmHg 75%
    06:00 -2°C° 0 mm 4 m/s 750 mmHg 75%
    07:00 -2°C° 0 mm 4 m/s 750 mmHg 74%
    08:00 -2°C° 0 mm 4 m/s 751 mmHg 73%
    09:00 -1°C° 0 mm 3 m/s 751 mmHg 72%
    10:00 -1°C° 0 mm 4 m/s 751 mmHg 69%
    11:00 +1°C° 0 mm 4 m/s 751 mmHg 66%
    12:00 +2°C° 0 mm 5 m/s 752 mmHg 63%
    13:00 +2°C° 0 mm 5 m/s 752 mmHg 65%
    14:00 +3°C° 0 mm 4 m/s 752 mmHg 68%
    15:00 +3°C° 0 mm 4 m/s 752 mmHg 70%
    16:00 +1°C° 0 mm 4 m/s 752 mmHg 73%
    17:00 0°C° 0 mm 4 m/s 752 mmHg 76%
    18:00 0°C° 0 mm 4 m/s 753 mmHg 79%
    19:00 -1°C° 0 mm 4 m/s 753 mmHg 79%
    20:00 -1°C° 0 mm 4 m/s 753 mmHg 79%
    21:00 -1°C° 0 mm 4 m/s 754 mmHg 80%
    22:00 -1°C° 0 mm 5 m/s 754 mmHg 80%
    23:00 -1°C° 0 mm 5 m/s 754 mmHg 80%

    24 Ianuarie, Joi

    Timp Temperatura Precipitaţii Vânt Presiune Umiditate
    00:00 -1°C° 0 mm 5 m/s 754 mmHg 81%
    01:00 -1°C° 0 mm 5 m/s 754 mmHg 82%
    02:00 -1°C° 0 mm 5 m/s 755 mmHg 83%
    03:00 -1°C° 0 mm 5 m/s 755 mmHg 83%
    04:00 0°C° 0 mm 5 m/s 755 mmHg 84%
    05:00 0°C° 0 mm 5 m/s 756 mmHg 85%
    06:00 0°C° 0 mm 5 m/s 756 mmHg 86%
    07:00 0°C° 0 mm 5 m/s 757 mmHg 87%
    08:00 0°C° 0 mm 5 m/s 758 mmHg 88%
    09:00 +1°C° 0 mm 5 m/s 758 mmHg 89%
    10:00 +1°C° 0 mm 4 m/s 759 mmHg 88%
    11:00 +3°C° 0 mm 4 m/s 759 mmHg 86%
    12:00 +4°C° 0 mm 3 m/s 759 mmHg 85%
    13:00 +4°C° 0 mm 3 m/s 760 mmHg 86%
    14:00 +5°C° 0 mm 2 m/s 760 mmHg 88%
    15:00 +5°C° 0 mm 2 m/s 760 mmHg 90%
    16:00 +4°C° 0 mm 2 m/s 760 mmHg 90%
    17:00 +3°C° 0 mm 2 m/s 761 mmHg 91%
    18:00 +2°C° 0 mm 2 m/s 761 mmHg 91%
    19:00 +2°C° 0 mm 2 m/s 762 mmHg 90%
    20:00 +2°C° 0 mm 2 m/s 762 mmHg 88%
    21:00 +2°C° 0 mm 2 m/s 762 mmHg 87%
    22:00 +2°C° 0 mm 2 m/s 762 mmHg 86%
    23:00 +1°C° 0 mm 3 m/s 762 mmHg 84%

    25 Ianuarie, Vineri

    Timp Temperatura Precipitaţii Vânt Presiune Umiditate
    00:00 +2°C° 0 mm 3 m/s 762 mmHg 83%
    01:00 +2°C° 0.1 mm 3 m/s 762 mmHg 85%
    02:00 +2°C° 0.1 mm 3 m/s 762 mmHg 87%
    03:00 +2°C° 0.1 mm 3 m/s 762 mmHg 90%
    04:00 +2°C° 0.1 mm 3 m/s 762 mmHg 91%
    05:00 +3°C° 0.1 mm 3 m/s 762 mmHg 92%
    06:00 +3°C° 0.1 mm 3 m/s 762 mmHg 93%
    07:00 +3°C° 0 mm 3 m/s 762 mmHg 93%
    08:00 +3°C° 0 mm 3 m/s 763 mmHg 93%
    09:00 +3°C° 0 mm 3 m/s 763 mmHg 93%
    10:00 +4°C° 0 mm 3 m/s 763 mmHg 92%
    11:00 +7°C° 0 mm 3 m/s 763 mmHg 91%
    12:00 +8°C° 0 mm 3 m/s 763 mmHg 89%
    13:00 +8°C° 0 mm 3 m/s 763 mmHg 90%
    14:00 +8°C° 0 mm 3 m/s 763 mmHg 90%
    15:00 +8°C° 0 mm 3 m/s 762 mmHg 90%
    16:00 +7°C° 0 mm 3 m/s 762 mmHg 91%
    17:00 +5°C° 0 mm 4 m/s 762 mmHg 92%
    18:00 +4°C° 0 mm 4 m/s 762 mmHg 92%
    19:00 +4°C° 0 mm 4 m/s 762 mmHg 92%
    20:00 +4°C° 0 mm 4 m/s 761 mmHg 91%
    21:00 +3°C° 0 mm 5 m/s 761 mmHg 90%
    22:00 +3°C° 0 mm 5 m/s 761 mmHg 91%
    23:00 +3°C° 0 mm 5 m/s 760 mmHg 91%
    Arată mai mult